GW3133 Weather Reports


Display with metric or nautical units.
time (UTC)temp
F
wind
direction
speed
MPH
gust
MPH
rain 1hr
in
rain 24hr
in
rain mn
in
humidity
%
barometer
mb
20260510230734 67 37 0.0 2.0 0.00 0.00 0.00 83 1014.6
20260510225834 68 359 0.0 3.0 0.00 0.00 0.00 83 1014.6
20260510224934 68 316 0.0 3.0 0.00 0.00 0.00 82 1014.5
20260510224034 68 281 1.0 4.0 0.00 0.00 0.00 80 1014.3
20260510223134 70 330 1.0 6.0 0.00 0.00 0.00 76 1014.6
20260510222234 72 329 2.0 7.0 0.00 0.00 0.00 72 1014.5
20260510221335 72 342 2.0 8.0 0.00 0.00 0.00 69 1014.1
20260510220434 73 7 2.0 7.0 0.00 0.00 0.00 67 1013.8
20260510214634 77 247 2.0 5.0 0.00 0.00 0.00 53 1013.4
20260510212834 78 229 3.0 7.0 0.00 0.00 0.00 51 1013.3
20260510211934 78 231 3.0 8.0 0.00 0.00 0.00 50 1013.3
20260510211034 79 231 3.0 8.0 0.00 0.00 0.00 49 1013.3
20260510210134 79 212 4.0 10.0 0.00 0.00 0.00 49 1013.3
20260510205234 80 209 5.0 10.0 0.00 0.00 0.00 48 1013.1
20260510203434 80 223 5.0 13.0 0.00 0.00 0.00 48 1013.1
20260510202534 80 220 5.0 13.0 0.00 0.00 0.00 50 1013.0
20260510201634 80 186 5.0 12.0 0.00 0.00 0.00 51 1012.9
20260510200734 80 183 6.0 12.0 0.00 0.00 0.00 51 1013.4
20260510195834 80 186 5.0 11.0 0.00 0.00 0.00 51 1013.4
20260510194934 80 183 6.0 10.0 0.00 0.00 0.00 53 1013.6
20260510194034 80 200 6.0 12.0 0.00 0.00 0.00 52 1013.8
20260510193134 80 249 5.0 10.0 0.00 0.00 0.00 53 1014.0
20260510191334 80 224 6.0 18.0 0.00 0.00 0.00 53 1014.0
20260510185534 79 223 6.0 15.0 0.00 0.00 0.00 54 1013.9
20260510184634 80 222 5.0 13.0 0.00 0.00 0.00 55 1013.9
20260510183734 80 224 5.0 13.0 0.00 0.00 0.00 55 1014.0
20260510182834 79 200 4.0 9.0 0.00 0.00 0.00 56 1014.1
20260510181934 79 228 4.0 10.0 0.00 0.00 0.00 55 1014.2
20260510181034 78 210 4.0 9.0 0.00 0.00 0.00 56 1014.5
20260510180134 78 238 4.0 13.0 0.00 0.00 0.00 56 1014.5
20260510175234 77 227 3.0 8.0 0.00 0.00 0.00 60 1014.7
20260510173434 72 129 3.0 6.0 0.00 0.00 0.00 76 1014.7
20260510172534 72 143 3.0 5.0 0.00 0.00 0.00 76 1014.8
20260510171634 72 126 2.0 4.0 0.00 0.00 0.00 74 1014.9
20260510170734 72 118 3.0 5.0 0.00 0.00 0.00 75 1015.0
20260510165834 72 104 3.0 5.0 0.00 0.00 0.00 73 1015.1
20260510164934 74 106 2.0 6.0 0.00 0.00 0.00 71 1015.0
20260510164034 77 319 1.0 5.0 0.00 0.00 0.00 68 1015.1
20260510163134 78 265 2.0 6.0 0.00 0.00 0.00 58 1015.0
20260510162234 77 285 1.0 3.0 0.00 0.00 0.00 59 1015.1
20260510161334 75 300 2.0 6.0 0.00 0.00 0.00 63 1015.1
20260510160434 75 301 1.0 5.0 0.00 0.00 0.00 67 1015.2
20260510155534 75 297 1.0 4.0 0.00 0.00 0.00 69 1015.1
20260510154634 73 305 0.0 3.0 0.00 0.00 0.00 74 1015.2
20260510153734 71 296 1.0 5.0 0.00 0.00 0.00 77 1015.1
20260510152834 70 299 1.0 5.0 0.00 0.00 0.00 77 1015.2
20260510151934 70 298 1.0 5.0 0.00 0.00 0.00 75 1015.1
20260510151034 70 90 0.0 3.0 0.00 0.00 0.00 80 1015.0
20260510150134 67 104 2.0 3.0 0.00 0.00 0.00 85 1014.9
20260510145234 66 104 2.0 3.0 0.00 0.00 0.00 87 1014.8
20260510144334 65 105 3.0 4.0 0.00 0.00 0.00 87 1014.7
20260510143434 65 116 3.0 4.0 0.00 0.00 0.00 87 1014.6
20260510142534 64 128 3.0 4.0 0.00 0.00 0.00 87 1014.5
20260510141634 64 146 3.0 4.0 0.00 0.00 0.00 87 1014.4
20260510140734 63 148 4.0 5.0 0.00 0.00 0.00 88 1014.5
20260510135835 64 144 3.0 5.0 0.00 0.00 0.00 87 1014.5
20260510134934 64 143 3.0 4.0 0.00 0.00 0.00 88 1014.5
20260510134034 64 112 2.0 4.0 0.00 0.00 0.00 89 1014.5
20260510133134 63 109 3.0 4.0 0.00 0.00 0.00 89 1014.4
20260510132234 63 136 2.0 3.0 0.00 0.00 0.00 90 1014.6
20260510131334 63 105 2.0 4.0 0.00 0.00 0.00 89 1014.7
20260510130435 63 103 2.0 3.0 0.00 0.00 0.00 89 1014.8
20260510125535 63 109 2.0 3.0 0.00 0.00 0.00 90 1014.9
20260510124635 63 88 2.0 3.0 0.00 0.00 0.00 90 1014.8
20260510123734 62 28 1.0 3.0 0.00 0.00 0.00 92 1014.8
20260510122834 62 25 2.0 5.0 0.00 0.00 0.00 92 1014.6
20260510121934 61 51 3.0 6.0 0.00 0.00 0.00 93 1014.4
20260510121034 61 20 4.0 7.0 0.00 0.00 0.00 94 1014.4
20260510120134 60 24 4.0 7.0 0.00 0.00 0.00 94 1014.3
20260510115234 60 21 3.0 7.0 0.00 0.00 0.00 95 1014.1
20260510114334 60 30 2.0 5.0 0.00 0.00 0.00 95 1014.0
20260510113434 60 23 2.0 6.0 0.00 0.00 0.00 96 1013.9
20260510112534 60 22 2.0 5.0 0.00 0.00 0.00 96 1013.6
20260510111634 60 13 2.0 4.0 0.00 0.00 0.00 96 1013.5
20260510105834 59 16 1.0 3.0 0.00 0.00 0.00 96 1013.2
20260510103134 59 14 1.0 4.0 0.00 0.00 0.00 96 1013.0
20260510102234 59 9 1.0 6.0 0.00 0.00 0.00 95 1012.9
20260510101334 59 23 1.0 4.0 0.00 0.00 0.00 95 1012.9
20260510095534 59 25 0.0 3.0 0.00 0.00 0.00 93 1012.7
20260510093734 60 296 0.0 2.0 0.00 0.00 0.00 91 1012.5
20260510092834 60 292 0.0 2.0 0.00 0.00 0.00 91 1012.4
20260510091934 60 302 0.0 4.0 0.00 0.00 0.00 92 1012.2
20260510091034 60 294 0.0 3.0 0.00 0.00 0.00 91 1012.1
20260510090134 61 298 1.0 4.0 0.00 0.00 0.00 91 1012.1
20260510084334 61 301 0.0 4.0 0.00 0.00 0.00 91 1011.8
20260510082533 61 296 0.0 3.0 0.00 0.00 0.00 90 1011.6
20260510081634 61 0 0.0 0.0 0.00 0.00 0.00 90 1011.6
20260510080734 61 0 0.0 0.0 0.00 0.00 0.00 89 1011.4
20260510074933 61 0 0.0 0.0 0.00 0.00 0.00 89 1011.3
20260510074033 62 0 0.0 0.0 0.00 0.00 0.00 89 1011.3
20260510073133 62 0 0.0 0.0 0.00 0.00 0.00 88 1011.2
20260510072234 62 267 0.0 1.0 0.00 0.00 0.00 88 1011.3
20260510071333 62 267 0.0 1.0 0.00 0.00 0.00 87 1011.2
20260510070433 62 267 0.0 2.0 0.00 0.00 0.00 87 1011.2
20260510065533 63 268 1.0 3.0 0.00 0.00 0.00 86 1011.2
20260510064633 63 270 2.0 4.0 0.00 0.00 0.00 86 1011.1
20260510063733 62 261 2.0 4.0 0.00 0.00 0.00 87 1011.1
20260510062833 62 258 2.0 5.0 0.00 0.00 0.00 87 1011.0
20260510061933 62 262 1.0 3.0 0.00 0.00 0.00 88 1011.1
20260510061033 62 262 1.0 3.0 0.00 0.00 0.00 88 1011.2
20260510060133 62 263 1.0 3.0 0.00 0.00 0.00 89 1011.2
20260510054333 61 228 1.0 3.0 0.00 0.00 0.00 90 1011.2
20260510051633 60 203 0.0 2.0 0.00 0.00 0.00 90 1011.3
20260510050733 60 203 0.0 1.0 0.00 0.00 0.00 90 1011.3
20260510045834 60 203 0.0 1.0 0.00 0.00 0.00 89 1011.3
20260510044933 60 203 0.0 1.0 0.00 0.00 0.00 89 1011.5
20260510044033 61 203 0.0 1.0 0.00 0.00 0.00 89 1011.4
20260510043133 61 203 0.0 1.0 0.00 0.00 0.00 88 1011.4
20260510042233 61 203 0.0 1.0 0.00 0.00 0.00 87 1011.4
20260510041333 62 177 0.0 2.0 0.00 0.00 0.00 87 1011.3
20260510034633 63 0 0.0 0.0 0.00 0.00 0.00 87 1011.4
20260510033733 63 162 0.0 1.0 0.00 0.00 0.00 85 1011.2
20260510032833 64 0 0.0 0.0 0.00 0.00 0.00 83 1011.3
20260510031933 64 156 2.0 3.0 0.00 0.00 0.00 81 1011.2
20260510030133 64 300 1.0 6.0 0.00 0.00 0.00 79 1011.0
20260510025233 65 250 2.0 5.0 0.00 0.00 0.00 76 1010.9
20260510023433 66 225 2.0 5.0 0.00 0.00 0.00 75 1010.8
20260510022533 66 220 2.0 5.0 0.00 0.00 0.00 75 1010.7
20260510021633 66 235 2.0 5.0 0.00 0.00 0.00 75 1010.7
20260510020733 66 241 2.0 5.0 0.00 0.00 0.00 74 1010.6
20260510015833 66 186 3.0 5.0 0.00 0.00 0.00 74 1010.6
20260510014933 67 172 3.0 5.0 0.00 0.00 0.00 74 1010.6
20260510014033 67 165 3.0 5.0 0.00 0.00 0.00 74 1010.6
20260510013133 67 177 3.0 5.0 0.00 0.00 0.00 73 1010.6
20260510012233 67 162 4.0 6.0 0.00 0.00 0.00 73 1010.5
20260510011332 67 159 3.0 6.0 0.00 0.00 0.00 74 1010.5
20260510010433 67 193 3.0 6.0 0.00 0.00 0.00 74 1010.5
20260510005533 67 210 3.0 6.0 0.00 0.00 0.00 74 1010.4
20260510004633 67 212 3.0 7.0 0.00 0.00 0.00 75 1010.3
20260510002833 68 204 3.0 8.0 0.00 0.00 0.00 75 1010.2
20260510001933 68 198 3.0 9.0 0.00 0.00 0.00 75 1010.1
20260510001032 68 211 3.0 6.0 0.00 0.00 0.00 73 1010.0
20260509235232 69 228 3.0 6.0 0.00 0.00 0.00 70 1010.0
20260509234333 69 228 3.0 8.0 0.00 0.00 0.00 69 1010.0
20260509233432 70 238 3.0 9.0 0.00 0.00 0.00 68 1009.8
20260509232532 70 242 3.0 8.0 0.00 0.00 0.00 67 1009.8